This demonstration page uses our WeatherBlox Daily Observations layout. Learn more.

Left ArrowRight Arrow

41.86663, -103.66717

Hourly Observations for September 29, 2018

Temp ( °F °C ) Dew Point ( °F °C ) Humidity (%) Winds ( mph kmh ) Pressure ( in mb ) Visibility ( mi km ) Precip ( " mm )
12:32 am 00:32 Cloudy with Light Rain 45 7.2 39 3.9 80 80 SSE 14 22 30.09 1019 10 16 N/A
12:53 am 00:53 Cloudy with Light Rain 45 7.2 39 3.9 80 80 SSE 15 24 30.07 1018 10 16 N/A
1:22 am 01:22 Partly Cloudy with Light Rain 44 6.7 39 3.9 83 83 SSE 14 22 30.06 1018 10 16 N/A
1:41 am 01:41 Mostly Cloudy with Light Rain 44 6.7 40 4.4 85 85 SSE 14 22 30.03 1017 10 16 N/A
1:53 am 01:53 Mostly Cloudy with Light Rain 44 6.7 40 4.4 85 85 SSE 15 24 30.04 1017 10 16 N/A
2:53 am 02:53 Cloudy with Light Rain 46 7.8 41 5 83 83 SSE 18 30 29.99 1016 10 16 N/A
3:53 am 03:53 Mostly Cloudy with Light Rain 45 7.2 41 5 86 86 SSE 14 22 29.97 1015 10 16 N/A
4:07 am 04:07 Partly Cloudy with Light Rain 45 7.2 41 5 86 86 SSE 15 24 29.97 1015 10 16 N/A
4:53 am 04:53 Clear with Light Rain 44 6.7 41 5 89 89 SSE 14 22 29.94 1014 10 16 N/A
5:53 am 05:53 Clear with Light Rain 44 6.7 41 5 89 89 SE 12 19 29.93 1014 10 16 N/A
6:53 am 06:53 Sunny with Light Rain 43 6.1 41 5 93 93 SE 10 17 29.93 1014 10 16 N/A
7:53 am 07:53 Sunny with Light Rain 45 7.2 43 6.1 93 93 SE 9 15 29.91 1013 10 16 N/A
8:53 am 08:53 Sunny with Light Rain 49 9.4 43 6.1 80 80 E 8 13 29.94 1014 10 16 N/A
9:53 am 09:53 Sunny with Light Rain 52 11.1 43 6.1 72 72 N N/A 29.94 1014 10 16 N/A
10:53 am 10:53 Sunny with Light Rain 58 14.4 44 6.7 60 60 NW 10 17 29.93 1014 10 16 N/A
11:53 am 11:53 Sunny with Light Rain 61 16.1 44 6.7 54 54 WNW 7 11 29.92 1013 10 16 N/A
12:53 pm 12:53 Sunny 66 18.9 45 7.2 47 47 NW 8 13 29.89 1012 10 16 N/A
1:53 pm 13:53 Sunny 67 19.4 44 6.7 44 44 NNE 8 13 29.88 1012 10 16 N/A
2:53 pm 14:53 Sunny 68 20 44 6.7 42 42 NE 7 11 29.88 1012 10 16 N/A
3:53 pm 15:53 Sunny 66 18.9 45 7.2 47 47 NNE 13 20 29.89 1012 10 16 N/A
4:53 pm 16:53 Sunny 62 16.7 44 6.7 52 52 NNE 14 22 29.93 1014 10 16 N/A
5:53 pm 17:53 Sunny 58 14.4 44 6.7 60 60 NNE 14 22 29.96 1015 10 16 N/A
6:53 pm 18:53 Clear 54 12.2 43 6.1 67 67 NE 10 17 30.00 1016 10 16 N/A
7:53 pm 19:53 Clear 51 10.6 43 6.1 74 74 undefined N/A 30.03 1017 10 16 N/A
8:53 pm 20:53 Clear 49 9.4 43 6.1 80 80 ENE 8 13 30.06 1018 10 16 N/A
9:53 pm 21:53 Clear 47 8.3 42 5.6 83 83 ENE 6 9 30.07 1018 10 16 N/A
10:53 pm 22:53 Cloudy 48 8.9 43 6.1 83 83 NE 7 11 30.08 1019 10 16 N/A
11:04 pm 23:04 Cloudy 48 9 43 6 82 82 VRB 7 11 30.09 1019 10 16 N/A
11:53 pm 23:53 Cloudy 48 8.9 43 6.1 83 83 ENE 12 19 30.06 1018 10 16 N/A

Powered by AerisWeather